カタログに戻る

LINUSS1

運用中科学GEO
NORAD 55246·PAYLOAD·🇺🇸 United States

打ち上げ Nov 1, 2022 から Cape Canaveral Space Force Station

Loading…

TLE

最新Source: Space-Track

元期: Sep 14, 2026, 13:18 UTC

1 55246U 22144G   26257.55423508  .00000005  00000-0  00000-0 0  9994
2 55246   5.5957  63.4568 0008560 301.4426  36.9374  0.99055001 12549

AllMySatでLINUSS1をリアルタイム追跡

Download on the App Store